Location: Downe
(51.3167°N, 0.0500°E)
Time: 15:12:07
(UTC+00:00)

Cosmos 1833 - Pass Details

Date: 17 November 2019
Orbit: 835 x 864 km, 70.9° (Epoch: 06 December)

Event Time Altitude Azimuth Distance (km) Brightness Sun altitude
Rises 06:28:09 0° 209° (SSW) 3,373 7.2 -8.1°
Reaches altitude 10° 06:30:34 10° 210° (SSW) 2,442 6.5 -7.8°
Maximum altitude 06:36:11 87° 300° (WNW) 845 4.2 -7.0°
Drops below altitude 10° 06:41:52 10° 30° (NNE) 2,464 6.7 -6.2°
Sets 06:44:19 0° 31° (NNE) 3,406 7.5 -5.8°
